Regional Weather Roundup
Issued by NWS Portland, ME

Current Version | Previous Version | Text Only | Print | Product List | Glossary Off
Versions: 1 2 3 4 5 6 7 8 9 10 11 12 13 14 15 16 17 18 19 20 21 22 23 24 25 26 27 28 29 30 31 32 33 34 35 36 37 38 39 40 41 42 43 44 45 46 47 48 49 50
114 ASUS41 KGYX 170910 RWRGYX WEATHER ROUNDUP FOR MAINE AND NEW HAMPSHIRE NATIONAL WEATHER SERVICE GRAY ME 400 AM EST SUN DEC 17 2017 MEZ002-005-006-010-012-015-018-020-021-024-026-027-029-171000- MAINE CITY SKY/WX TMP DP RH WIND PRES REMARKS PORTLAND CLEAR 10 6 84 CALM 30.18R SANFORD CLEAR -2 -6 83 CALM 30.17S BAR HARBOR CLEAR 12 6 77 NW5 30.14R WISCASSET PTCLDY 7 4 87 CALM 30.18S ROCKLAND CLEAR 13 7 77 W7 30.16R FRYEBURG CLEAR -3 -6 87 CALM 30.14S LEWISTONAUBURN CLEAR 6 1 80 CALM 30.15F AUGUSTA PTCLDY 14 4 64 NW6 30.15R WATERVILLE CLEAR 8 3 80 CALM 30.10R BANGOR PTCLDY 11 5 77 NW5 30.15R GREENVILLE N/A 8 1 73 NW20G28 30.00S WCI -11 MILLINOCKET CLEAR 10 1 67 W14G21 30.09R WCI -6 HOULTON CLEAR 4 -2 76 CALM 30.06R PRESQUE ISLE CLOUDY -1 -7 75 W3 30.07R FRENCHVILLE CLEAR 0 -7 72 NW18 29.98F WCI -21 CARIBOU CLOUDY 1 -7 68 W3 30.03S $$ NHZ002-005-008-009-011-012-014-171000- NEW HAMPSHIRE CITY SKY/WX TMP DP RH WIND PRES REMARKS PORTSMOUTH CLEAR 16 7 67 W6 30.17R ROCHESTER CLEAR 11 6 81 VRB3 30.15S NASHUA CLEAR 6 3 87 NW3 30.22R MANCHESTER CLEAR 14 5 67 CALM 30.19S CONCORD CLEAR 7 2 80 CALM 30.20R LACONIA CLEAR 11 5 77 SW5 30.16S PLYMOUTH FAIR 12 5 72 NW9 30.17F BERLIN MOCLDY 7 3 84 N5 30.13S WHITEFIELD CLOUDY -5 -10 79 CALM 30.16S JAFFREY CLOUDY 3 -1 83 SE5 30.15R KEENE PTCLDY 0 -3 87 CALM 30.23R LEBANON PTCLDY -6 -10 83 CALM 30.21R MT WASHINGTON PTCLDY -6 -8 92 NW45 N/A WCI -38 $$ VTZ005-007-008-171000- VERMONT CITY SKY/WX TMP DP RH WIND PRES REMARKS ST JOHNSBURY N/A -1 -4 87 MISG 30.20R MONTPELIER PTCLDY -1 -4 87 CALM 30.20R BURLINGTON CLOUDY 6 1 80 CALM 30.26R $$ MAZ007-012-024-CTZ003-RIZ002-NYZ038-NYZ072-171000- SOUTHERN NEW ENGLAND AND NY CITY SKY/WX TMP DP RH WIND PRES REMARKS BOSTON CLEAR 22 8 55 W12 30.21S WCI 10 WORCESTER CLEAR 13 4 67 VRB3 30.14F NANTUCKET CLEAR 26 15 63 NW10 30.20R WCI 16 PROVIDENCE CLEAR 20 13 74 W7 30.23S HARTFORD PTCLDY 14 9 80 W9 30.25R ALBANY PTCLDY 12 7 80 CALM 30.27R NEW YORK CITY CLOUDY 34 21 59 N6 30.25S $$ ANZ081-ANZ082-ANZ150-NHZ014-MEZ023>029-171000- COASTAL MARINE OBSERVATIONS STATION/POSITION TIME TEMP WIND PRES WAVE AIR SEA DIR/SP/G HT/PER (UTC) (F) (DEG/KT/KT) (MB) (FT/S) MOUNT DESERT ROC 0900 24 320/ 24/ 26 1019.7F MATINICUS ROCK 0800 22 320/ 17/ 19 1020.0R ISLE OF SHOALS 0800 21 310/ 13/ 15 1021.8R JEFFREYS LEDGE 0836 47 N/A 3/ 4 GEORGES BANK BUO 0750 36 50 1017.6 12/ 8 $$ .............KEY.............. WCI - WIND CHILL TC - TEMPERATURE IN CELSIUS VSB - VISIBILITY IN MILES HX - HEAT INDEX FAIR- INDICATES FEW OR NO CLOUDS BELOW 12,000 FT, WITH NO SIGNIFICANT WEATHER AND/OR OBSTRUCTIONS TO VISIBILITY.

USA.gov is the U.S. government's official web portal to all federal, state and local government web resources and services.